Biloxi, MS

2:44 PM CDT on June 26, 2017 (GMT -0500)
Keesler Air Force Base

Weather History for KBIX - January, 2013

Change the Weather History Date:

Monday, January 28, 2013

  Actual Average Record
Temperature  
Mean Temperature 64 °F -  
Max Temperature 73 °F 62 °F 75 °F (2002)
Min Temperature 56 °F 43 °F 24 °F (1963)
Growing Degree Days 14 (Base 50)    
Moisture  
Dew Point 60 °F    
Average Humidity 94    
Maximum Humidity 100    
Minimum Humidity 70    
Precipitation  
Precipitation 0.00 in - - ()
Sea Level Pressure  
Sea Level Pressure 30.22 in    
Wind  
Wind Speed 6 mph (East)    
Max Wind Speed 15 mph    
Max Gust Speed 20 mph    
Visibility 4 miles    
Events Fog    
Averages and records for this station are not official NWS values.
T = Trace of Precipitation, MM = Missing Value Source: NWS Daily Summary

Daily Weather History Graph

Daily Weather History Graph

Search for Another Location

Airport or City:

Trip Planner

Search our weather history database for the weather conditions in past years. The results will help you decide how hot, cold, wet, or windy it might be!

Date:

Astronomy

Jan. 28, 2013 Rise Set
Actual Time 6:48 AM CST 5:29 PM CST
Civil Twilight 6:23 AM CST 5:54 PM CST
Nautical Twilight 5:54 AM CST 6:23 PM CST
Astronomical Twilight 5:25 AM CST 6:51 PM CST
Moon 7:11 PM CST (1/28) 7:24 AM CST (1/28)
Length of Visible Light 11h 31m
Length of Day
10h 40m
Full, 98% of the Moon is Illuminated
Jan 28
Full
Feb 3
Last Quarter
Feb 10
New
Feb 17
First Quarter
Feb 25
Full

Hourly Weather History & Observations

Time (CST) Temp. Dew Point Humidity Pressure Visibility Wind Dir Wind Speed Gust Speed Precip Events Conditions
12:55 AM 62.4 °F 61.0 °F 95% 30.25 in 10.0 mi SE 6.9 mph - N/A   Clear
1:55 AM 63.0 °F 60.8 °F 93% 30.24 in 10.0 mi SE 4.6 mph - N/A   Clear
2:55 AM 62.6 °F 60.6 °F 93% 30.23 in 10.0 mi ESE 5.8 mph - N/A   Clear
3:26 AM 60.8 °F 60.8 °F 100% 30.23 in 8.0 mi East 5.8 mph - N/A   Clear
3:55 AM 61.2 °F 60.1 °F 96% 30.23 in 8.0 mi East 4.6 mph - N/A   Clear
4:16 AM 59.0 °F 57.2 °F 94% 30.23 in 4.0 mi ENE 4.6 mph - N/A   Clear
4:22 AM 59.0 °F 57.2 °F 94% 30.23 in 3.0 mi ENE 4.6 mph - N/A   Clear
4:23 AM 59.0 °F 57.2 °F 94% 30.23 in 2.5 mi East 4.6 mph - N/A   Clear
4:24 AM 59.0 °F 57.2 °F 94% 30.23 in 2.0 mi East 3.5 mph - N/A   Clear
4:26 AM 59.0 °F 57.2 °F 94% 30.23 in 1.8 mi ENE 3.5 mph - N/A   Clear
4:27 AM 59.0 °F 57.2 °F 94% 30.23 in 1.5 mi ENE 3.5 mph - N/A   Clear
4:28 AM 57.2 °F 57.2 °F 100% 30.23 in 1.2 mi ENE 3.5 mph - N/A   Clear
4:30 AM 57.2 °F 57.2 °F 100% 30.23 in 0.8 mi ENE 4.6 mph - N/A   Clear
4:31 AM 57.2 °F 57.2 °F 100% 30.23 in 0.5 mi ENE 4.6 mph - N/A Fog Fog
4:35 AM 57.2 °F 55.4 °F 94% 30.23 in 0.2 mi ENE 4.6 mph - N/A Fog Fog
4:36 AM 57.2 °F 55.4 °F 94% 30.23 in 0.2 mi ENE 4.6 mph - N/A Fog Fog
4:49 AM 57.2 °F 55.4 °F 94% 30.23 in 0.5 mi ENE 4.6 mph - N/A Fog Fog
4:50 AM 57.2 °F 55.4 °F 94% 30.23 in 0.2 mi ENE 4.6 mph - N/A Fog Fog
4:51 AM 57.2 °F 55.4 °F 94% 30.23 in 0.5 mi ENE 4.6 mph - N/A Fog Fog
4:54 AM 57.2 °F 57.2 °F 100% 30.23 in 0.5 mi ENE 4.6 mph - N/A Fog Fog
4:55 AM 57.2 °F 56.5 °F 97% 30.23 in 0.5 mi ENE 4.6 mph - N/A Fog Fog
4:59 AM 57.2 °F 57.2 °F 100% 30.23 in 0.8 mi East 4.6 mph - N/A   Clear
5:02 AM 57.2 °F 57.2 °F 100% 30.23 in 1.0 mi East 4.6 mph - N/A   Clear
5:07 AM 57.2 °F 57.2 °F 100% 30.23 in 1.5 mi East 4.6 mph - N/A   Clear
5:08 AM 57.2 °F 57.2 °F 100% 30.23 in 2.0 mi East 5.8 mph - N/A   Clear
5:09 AM 57.2 °F 57.2 °F 100% 30.23 in 2.5 mi East 5.8 mph - N/A   Clear
5:11 AM 57.2 °F 57.2 °F 100% 30.23 in 3.0 mi East 4.6 mph - N/A   Clear
5:20 AM 57.2 °F 57.2 °F 100% 30.23 in 2.5 mi East 5.8 mph - N/A   Clear
5:21 AM 57.2 °F 57.2 °F 100% 30.23 in 2.0 mi East 5.8 mph - N/A   Partly Cloudy
5:22 AM 57.2 °F 57.2 °F 100% 30.23 in 1.8 mi East 5.8 mph - N/A   Partly Cloudy
5:23 AM 57.2 °F 57.2 °F 100% 30.23 in 1.5 mi East 5.8 mph - N/A   Partly Cloudy
5:24 AM 57.2 °F 57.2 °F 100% 30.23 in 1.2 mi East 5.8 mph - N/A   Partly Cloudy
5:25 AM 57.2 °F 57.2 °F 100% 30.24 in 1.0 mi East 5.8 mph - N/A   Mist
5:27 AM 57.2 °F 57.2 °F 100% 30.24 in 0.8 mi East 5.8 mph - N/A   Mist
5:28 AM 57.2 °F 57.2 °F 100% 30.24 in 0.8 mi East 5.8 mph - N/A   Mist
5:29 AM 59.0 °F 57.2 °F 94% 30.24 in 0.5 mi East 5.8 mph - N/A Fog Fog
5:32 AM 59.0 °F 57.2 °F 94% 30.24 in 0.5 mi East 5.8 mph - N/A Fog Fog
5:55 AM 58.1 °F 57.6 °F 98% 30.24 in 0.5 mi East 4.6 mph - N/A Fog Fog
6:06 AM 57.2 °F 57.2 °F 100% 30.25 in 0.8 mi NE 3.5 mph - N/A   Mist
6:07 AM 57.2 °F 57.2 °F 100% 30.25 in 0.8 mi NE 3.5 mph - N/A   Mist
6:10 AM 57.2 °F 57.2 °F 100% 30.25 in 1.0 mi ENE 3.5 mph - N/A   Mist
6:13 AM 57.2 °F 57.2 °F 100% 30.25 in 1.5 mi East 3.5 mph - N/A   Mostly Cloudy
6:14 AM 57.2 °F 57.2 °F 100% 30.25 in 1.8 mi East 3.5 mph - N/A   Scattered Clouds
6:15 AM 57.2 °F 57.2 °F 100% 30.25 in 2.0 mi East 3.5 mph - N/A   Scattered Clouds
6:16 AM 57.2 °F 57.2 °F 100% 30.25 in 2.5 mi East 3.5 mph - N/A   Scattered Clouds
6:17 AM 57.2 °F 57.2 °F 100% 30.26 in 3.0 mi East 3.5 mph - N/A   Scattered Clouds
6:20 AM 57.2 °F 57.2 °F 100% 30.26 in 4.0 mi ENE 4.6 mph - N/A   Scattered Clouds
6:32 AM 57.2 °F 57.2 °F 100% 30.26 in 4.0 mi ENE 4.6 mph - N/A   Clear
6:36 AM 57.2 °F 55.4 °F 94% 30.26 in 3.0 mi ENE 4.6 mph - N/A   Clear
6:55 AM 56.8 °F 56.3 °F 98% 30.26 in 4.0 mi ENE 5.8 mph - N/A   Clear
7:55 AM 61.7 °F 61.2 °F 98% 30.26 in 10.0 mi ESE 4.6 mph - N/A   Clear
8:55 AM 67.5 °F 62.1 °F 83% 30.27 in 10.0 mi SSE 10.4 mph - N/A   Clear
9:55 AM 69.8 °F 62.6 °F 78% 30.28 in 10.0 mi SE 9.2 mph - N/A   Clear
10:55 AM 71.1 °F 63.0 °F 75% 30.28 in 10.0 mi ESE 9.2 mph 16.1 mph N/A   Clear
10:58 AM 71.1 °F 63.0 °F 75% 30.27 in 10.0 mi SE 8.1 mph 16.1 mph N/A   Clear
11:58 AM 72.9 °F 62.4 °F 70% 30.26 in 10.0 mi SE 15.0 mph 18.4 mph N/A   Clear
12:58 PM 73.2 °F 63.0 °F 70% 30.23 in 10.0 mi SE 10.4 mph 17.3 mph N/A   Clear
1:58 PM 73.6 °F 63.9 °F 72% 30.21 in 10.0 mi SE 12.7 mph - N/A   Clear
2:58 PM 70.9 °F 63.9 °F 78% 30.20 in 10.0 mi SE 9.2 mph - N/A   Scattered Clouds
3:58 PM 70.9 °F 64.2 °F 79% 30.19 in 10.0 mi SE 10.4 mph - N/A   Partly Cloudy
4:55 PM 69.6 °F 64.9 °F 85% 30.19 in 10.0 mi ESE 11.5 mph - N/A   Clear
5:51 PM 68.0 °F 64.4 °F 88% 30.19 in 10.0 mi ESE 9.2 mph - N/A   Scattered Clouds
5:56 PM 67.3 °F 64.6 °F 91% 30.19 in 10.0 mi ESE 9.2 mph - N/A   Mostly Cloudy
6:29 PM 68.0 °F 64.4 °F 88% 30.19 in 10.0 mi ESE 12.7 mph - N/A   Overcast
6:56 PM 67.3 °F 64.8 °F 92% 30.19 in 10.0 mi ESE 10.4 mph - N/A   Overcast
7:58 PM 66.7 °F 64.9 °F 94% 30.18 in 10.0 mi ESE 11.5 mph - N/A   Overcast
8:58 PM 66.6 °F 64.8 °F 94% 30.17 in 10.0 mi ESE 11.5 mph 19.6 mph N/A   Overcast
9:03 PM 66.2 °F 64.4 °F 94% 30.16 in 1.0 mi ESE 11.5 mph 17.3 mph N/A   Overcast
9:13 PM 66.2 °F 64.4 °F 94% 30.17 in 1.0 mi ESE 11.5 mph 19.6 mph N/A   Overcast
9:43 PM 66.2 °F 64.4 °F 94% 30.16 in 8.0 mi ESE 11.5 mph 18.4 mph N/A   Overcast
9:58 PM 66.0 °F 64.8 °F 96% 30.17 in 2.0 mi ESE 12.7 mph 18.4 mph N/A   Overcast
10:03 PM 66.2 °F 64.4 °F 94% 30.16 in 10.0 mi ESE 11.5 mph 17.3 mph N/A   Overcast
10:18 PM 66.2 °F 64.4 °F 94% 30.16 in 8.0 mi ESE 10.4 mph 17.3 mph N/A   Overcast
10:23 PM 66.2 °F 64.4 °F 94% 30.16 in 7.0 mi ESE 12.7 mph - N/A   Overcast
10:33 PM 66.2 °F 64.4 °F 94% 30.16 in 5.0 mi SE 11.5 mph - N/A   Overcast
10:53 PM 66.2 °F 64.4 °F 94% 30.15 in 5.0 mi ESE 10.4 mph - N/A   Overcast
10:58 PM 65.7 °F 64.8 °F 97% 30.16 in 3.0 mi SE 10.4 mph - N/A   Overcast
11:03 PM 66.2 °F 64.4 °F 94% 30.15 in 2.0 mi ESE 10.4 mph - N/A   Overcast
11:34 PM 66.2 °F 64.4 °F 94% 30.14 in 3.0 mi SE 10.4 mph - N/A   Overcast
11:40 PM 66.2 °F 64.4 °F 94% 30.14 in 4.0 mi SE 10.4 mph 17.3 mph N/A   Overcast
11:45 PM 66.2 °F 66.2 °F 100% 30.14 in 6.0 mi SE 12.7 mph - N/A   Overcast
11:50 PM 66.2 °F 66.2 °F 100% 30.14 in 7.0 mi ESE 11.5 mph 18.4 mph N/A   Overcast
11:55 PM 66.2 °F 66.2 °F 100% 30.14 in 7.0 mi SE 12.7 mph 18.4 mph N/A   Overcast
11:58 PM 66.2 °F 65.5 °F 98% 30.15 in 7.0 mi ESE 9.2 mph 18.4 mph N/A   Overcast